Hourly Data Report for July 09, 2004

TORONTO CITY
ONTARIO

43°40'00.000" N
79°24'00.000" W
112.50 m
6158355
71508
XTO

Download Data

Hourly Data (July 2004)
Hourly Data Report for July 9, 2004
TIME
LST
Temp Definition
°C
Dew Point Definition
°C
Rel Hum Definition
%
Precip. Amount Definition
mm

Wind Dir Definition
10's deg

Wind Spd Definition
km/h
Visibility Definition
km
Stn Press Definition
kPa
Hmdx Definition


Wind Chill Definition


Weather Definition


00:00 15.6 12.2 80   LegendMM LegendMM LegendMM 100.06     LegendNANA
01:00 15.2 12.5 84   LegendMM LegendMM LegendMM 100.07     LegendNANA
02:00 15.7 12.6 82   LegendMM LegendMM LegendMM 100.10     LegendNANA
03:00 15.6 12.6 82   LegendMM LegendMM LegendMM 100.11     LegendNANA
04:00 15.8 12.7 82   LegendMM LegendMM LegendMM 100.15     LegendNANA
05:00 15.6 12.6 82   LegendMM LegendMM LegendMM 100.22     LegendNANA
06:00 15.6 12.9 84   LegendMM LegendMM LegendMM 100.26     LegendNANA
07:00 16.8 13.1 79   LegendMM LegendMM LegendMM 100.26     LegendNANA
08:00 17.8 13.2 74   LegendMM LegendMM LegendMM 100.30     LegendNANA
09:00 18.5 14.4 77   LegendMM LegendMM LegendMM 100.34     LegendNANA
10:00 19.6 15.0 75   LegendMM LegendMM LegendMM 100.36     LegendNANA
11:00 20.4 15.3 73   LegendMM LegendMM LegendMM 100.37 25   LegendNANA
12:00 20.8 15.0 69   LegendMM LegendMM LegendMM 100.45 25   LegendNANA
13:00 20.9 15.1 69   LegendMM LegendMM LegendMM 100.45 25   LegendNANA
14:00 21.4 14.8 66   LegendMM LegendMM LegendMM 100.41 25   LegendNANA
15:00 22.3 15.8 67   LegendMM LegendMM LegendMM 100.41 27   LegendNANA
16:00 22.7 16.0 66   LegendMM LegendMM LegendMM 100.40 27   LegendNANA
17:00 22.6 15.8 65   LegendMM LegendMM LegendMM 100.41 27   LegendNANA
18:00 21.3 15.5 70   LegendMM LegendMM LegendMM 100.40 26   LegendNANA
19:00 21.0 15.8 72   LegendMM LegendMM LegendMM 100.44 25   LegendNANA
20:00 21.9 15.7 68   LegendMM LegendMM LegendMM 100.47 26   LegendNANA
21:00 20.8 15.6 72   LegendMM LegendMM LegendMM 100.50 25   LegendNANA
22:00 19.7 15.3 76   LegendMM LegendMM LegendMM 100.51     LegendNANA
23:00 19.4 15.5 78   LegendMM LegendMM LegendMM 100.53     LegendNANA

Notes on Data Quality.

Legend

  • E = Estimated
  • M = Missing
  • NA = Not Available*
  • [empty] = Indicates an unobserved value
Date modified: